Rexburg, ID

3:41 AM MST on February 27, 2017 (GMT -0700)
Rexburg-Madison County

Weather History for KRXE - April, 2012

Change the Weather History Date:

Monday, April 16, 2012

  Actual Average Record
Temperature  
Mean Temperature 41 °F 44 °F  
Max Temperature 57 °F 56 °F 71 °F (2010)
Min Temperature 25 °F 31 °F 19 °F (1999)
Degree Days  
Heating Degree Days 24 21  
Month to date heating degree days 284 368  
Since 1 July heating degree days 6506 7297  
Cooling Degree Days 0 0  
Month to date cooling degree days 0 0  
Year to date cooling degree days 0 0  
Moisture  
Dew Point 26 °F    
Average Humidity 58    
Maximum Humidity 92    
Minimum Humidity 24    
Precipitation  
Precipitation T in 0.06 in 0.52 in (2006)
Month to date precipitation 0.40 0.75  
Year to date precipitation 3.29 3.38  
Sea Level Pressure  
Sea Level Pressure 30.13 in    
Wind  
Wind Speed 10 mph (SSW)    
Max Wind Speed 28 mph    
Max Gust Speed 39 mph    
Visibility 10 miles    
Events Rain    
T = Trace of Precipitation, MM = Missing Value Source: NWS Daily Summary

Daily Weather History Graph

Daily Weather History Graph

Search for Another Location

Airport or City:

Trip Planner

Search our weather history database for the weather conditions in past years. The results will help you decide how hot, cold, wet, or windy it might be!

Date:

Astronomy

Apr. 16, 2012 Rise Set
Actual Time 6:41 AM MDT 8:12 PM MDT
Civil Twilight 6:11 AM MDT 8:43 PM MDT
Nautical Twilight 5:35 AM MDT 9:19 PM MDT
Astronomical Twilight 4:56 AM MDT 9:58 PM MDT
Moon 4:20 AM MDT (4/16) 4:04 PM MDT (4/16)
Length of Visible Light 14h 31m
Length of Day
13h 31m
Waning Crescent, 18% of the Moon is Illuminated
Apr 16
Waning Crescent
Apr 21
New
Apr 29
First Quarter
May 5
Full
May 12
Last Quarter

Hourly Weather History & Observations

Time (MDT) Temp. Windchill Dew Point Humidity Pressure Visibility Wind Dir Wind Speed Gust Speed Precip Events Conditions
12:53 AM 32.0 °F 26.4 °F 28.0 °F 85% 30.09 in 10.0 mi NE 5.8 mph - N/A   Clear
1:53 AM 30.9 °F 25.2 °F 27.0 °F 85% 30.10 in 10.0 mi NE 5.8 mph - N/A   Clear
2:53 AM 28.0 °F 21.7 °F 24.1 °F 85% 30.12 in 10.0 mi ENE 5.8 mph - N/A   Clear
3:53 AM 28.0 °F 22.8 °F 26.1 °F 92% 30.12 in 10.0 mi ENE 4.6 mph - N/A   Clear
4:53 AM 26.1 °F - 23.0 °F 88% 30.14 in 10.0 mi Calm Calm - N/A   Clear
5:53 AM 26.1 °F - 21.9 °F 84% 30.16 in 10.0 mi Calm Calm - N/A   Clear
6:53 AM 25.0 °F - 21.0 °F 85% 30.18 in 10.0 mi Calm Calm - N/A   Clear
7:53 AM 28.0 °F - 24.1 °F 85% 30.20 in 10.0 mi Calm Calm - N/A   Clear
8:53 AM 33.1 °F 30.0 °F 28.0 °F 82% 30.20 in 10.0 mi WSW 3.5 mph - N/A   Clear
9:53 AM 42.1 °F 37.7 °F 27.0 °F 55% 30.18 in 10.0 mi SSW 6.9 mph - N/A   Clear
10:53 AM 46.0 °F 41.9 °F 25.0 °F 44% 30.17 in 10.0 mi SSW 8.1 mph - N/A   Clear
12:53 PM 52.0 °F - 21.0 °F 30% 30.15 in 10.0 mi WSW 12.7 mph 19.6 mph N/A   Partly Cloudy
1:53 PM 54.0 °F - 21.0 °F 28% 30.12 in 10.0 mi SW 13.8 mph 20.7 mph N/A   Clear
2:53 PM 55.0 °F - 21.9 °F 28% 30.11 in 10.0 mi SW 17.3 mph 21.9 mph N/A   Clear
3:53 PM 57.0 °F - 21.0 °F 25% 30.08 in 10.0 mi SW 19.6 mph 29.9 mph N/A   Mostly Cloudy
4:53 PM 54.0 °F - 26.1 °F 34% 30.10 in 10.0 mi WSW 19.6 mph 33.4 mph N/A   Overcast
5:53 PM 53.1 °F - 27.0 °F 37% 30.10 in 10.0 mi SSW 23.0 mph 34.5 mph N/A   Overcast
6:53 PM 51.1 °F - 28.9 °F 43% 30.13 in 10.0 mi SW 25.3 mph 31.1 mph 0.00 in   Overcast
7:53 PM 50.0 °F - 30.9 °F 48% 30.11 in 10.0 mi SW 17.3 mph 25.3 mph 0.00 in   Overcast
8:53 PM 48.0 °F - 35.1 °F 61% 30.10 in 10.0 mi SSW 13.8 mph 21.9 mph 0.00 in Rain Light Rain
9:53 PM 46.9 °F - 34.0 °F 61% 30.09 in 10.0 mi South 8.1 mph - 0.00 in   Overcast
10:53 PM 46.9 °F - 34.0 °F 61% 30.07 in 10.0 mi South 8.1 mph 17.3 mph N/A   Overcast
11:53 PM 46.0 °F 40.2 °F 33.1 °F 61% 30.06 in 10.0 mi South 12.7 mph - 0.00 in   Mostly Cloudy